Regional Weather Roundup
Issued by NWS Huntsville, AL

Home | Current Version | Previous Version | Text Only | Print | Product List | Glossary On
Versions: 1 2 3 4 5 6 7 8 9 10 11 12 13 14 15 16 17 18 19 20 21 22 23 24 25 26 27
000
ASUS44 KHUN 250610
RWRHUN

WEATHER ROUNDUP FOR THE TENNESSEE VALLEY
NATIONAL WEATHER SERVICE HUNTSVILLE AL
100 AM CDT MON JUL 25 2016

ALZ001>004-250700-
NORTHWEST ALABAMA

CITY           SKY/WX    TMP DP  RH WIND       PRES   REMARKS
COURTLAND HCN    N/A     75 N/A N/A CALM        N/A
RUSSELLVILLE     N/A     72 N/A N/A MISG        N/A
SHOALS AIRPORT CLEAR     76  72  87 SE5       29.99F
6HR MIN TEMP:  75; 6HR MAX TEMP:  80;

SHOALS TVA RES   N/A     73 N/A N/A MISG        N/A
$$

ALZ005>007-016-250700-
NORTH CENTRAL ALABAMA

CITY           SKY/WX    TMP DP  RH WIND       PRES   REMARKS
CULLMAN AG STN   N/A     73 N/A N/A CALM        N/A
DECATUR AP     CLEAR     76  75  97 SE5       30.00F
6HR MIN TEMP:  76; 6HR MAX TEMP:  88; 6HR PCP:  0.23;

HUNTSVILLE AP  CLEAR     78  72  81 SE5       30.00F
6HR MIN TEMP:  78; 6HR MAX TEMP:  91;

MERIDIANVILLE  CLEAR     75  68  78 CALM      30.01F
REDSTONE ARSN  CLEAR     76  73  90 S3        29.99F
VINEMONT AP    FAIR      72  71  98 CALM      30.04F
$$

ALZ008>010-250700-
NORTHEAST ALABAMA

CITY           SKY/WX    TMP DP  RH WIND       PRES   REMARKS
ALBERTVILLE    CLEAR     77  77 100 CALM      30.02F
FORT PAYNE     PTCLDY    73  70  88 CALM      30.02F
SCOTTSBORO AP  PTCLDY    73  72  94 CALM      30.02F
SCOTTSBORO HCN   N/A     72 N/A N/A MISG        N/A
VALLEY HEAD      N/A     73 N/A N/A MISG        N/A
$$

TNZ076-096-097-250700-
SOUTHEASTERN MIDDLE TENNESSEE

CITY           SKY/WX    TMP DP  RH WIND       PRES   REMARKS
TULLAHOMA      CLEAR     73  72  94 S3        30.04F
WINCHESTER     CLEAR     73  72  94 CALM      30.03F
$$

...SURROUNDING SITES...

CITY           SKY/WX    TMP DP  RH WIND       PRES   REMARKS
ATLANTA        PTCLDY    80  71  74 CALM      30.04F
ANNISTON       PTCLDY    76  73  91 CALM      30.03S
BIRMINGHAM     CLEAR     78  75  90 SE3       30.04S
CHATTANOOGA    CLEAR     77  73  87 CALM      30.02F
DALTON         CLEAR     73  73 100 CALM      30.02F
GADSDEN        CLEAR     75  75 100 CALM      30.02F
GOLDEN TRNGL   CLEAR     77  70  78 S3        29.96F
HALEYVILLE     FAIR      72  72 100 CALM      30.03F
JACKSON TN     CLEAR     77  76  96 S5        29.97S
MEMPHIS        PTCLDY    81  75  82 S5        29.96F
NASHVILLE      MOCLDY    79  73  82 S3        29.99R
OXFORD MS      FAIR      75  73  94 CALM      29.99S
ROME           CLEAR     76  72  87 S3        30.02F
SAVANNAH       CLEAR     77  75  94 CALM      29.97S
TUPELO         CLEAR     79  74  84 CALM      29.97F
TUSCALOOSA     CLEAR     78  75  90 S3        29.99F
$$

...GULF COAST WEATHER...

CITY           SKY/WX    TMP DP  RH WIND       PRES   REMARKS
GULFPORT       MOCLDY    80  77  90 NE3       29.95F
PASCAGOULA     CLEAR     78  78 100 NE3       29.96F
MOBILE         CLEAR     78  75  90 NE3       29.98F
GULF SHORES    MOCLDY    80  77  90 SE6       29.97F
PENSACOLA      CLEAR     84  73  69 SE9       29.97F HX  90
DESTIN         PTCLDY    87  76  69 S6        29.98F HX  97
PANAMA CITY    PTCLDY    79  76  89 E3        30.00F
APPALACHICOLA  PTCLDY    83  77  82 S8        30.00F HX  92
$$





USA.gov is the U.S. government's official web portal to all federal, state and local government web resources and services.